,,PA_Meas_PMT16A,,PR_Meas_QMR101_102,,RH_Meas_QMH101,,SR_Meas_QMS101,,TA_Meas_QMH101,,GenWind,,GenWind,
time,status,PA,status,PR,status,RH,status,SR,status,TA,status,DirAvg,status,SpdAvg,
2015-04-06, 07:46:04,VALID,916.796,VALID,0,VALID,98.4717,VALID,76.3907,VALID,19.2168,VALID,146,VALID,0,
2015-04-06, 07:47:04,VALID,916.808,VALID,0,VALID,98.4717,VALID,78.6469,VALID,19.2558,VALID,167,VALID,0.163281,
2015-04-06, 07:48:04,VALID,916.786,VALID,0,VALID,98.4793,VALID,81.0106,VALID,19.2348,VALID,158,VALID,1.64922,
2015-04-06, 07:49:04,VALID,916.823,VALID,0,VALID,98.4717,VALID,83.1595,VALID,19.2543,VALID,147,VALID,0.951172,
2015-04-06, 07:50:04,VALID,916.81,VALID,0,VALID,98.4869,VALID,85.5232,VALID,19.2348,VALID,144,VALID,1.24453,
2015-04-06, 07:51:04,VALID,916.795,VALID,0,VALID,98.4869,VALID,88.8538,VALID,19.2153,VALID,134,VALID,1.71367,
2015-04-06, 07:52:04,VALID,916.803,VALID,0,VALID,98.5022,VALID,92.7217,VALID,19.2543,VALID,131,VALID,1.28047,
2015-04-06, 07:53:04,VALID,916.793,VALID,0,VALID,98.4793,VALID,96.4822,VALID,19.2933,VALID,138,VALID,1.51094,
2015-04-06, 07:54:04,VALID,916.785,VALID,0,VALID,98.4717,VALID,100.35,VALID,19.3128,VALID,126,VALID,0.0613281,
2015-04-06, 07:55:04,VALID,916.793,VALID,0,VALID,98.4717,VALID,104.218,VALID,19.3518,VALID,149,VALID,0,
2015-04-06, 07:56:04,VALID,916.795,VALID,0,VALID,98.464,VALID,108.623,VALID,19.3518,VALID,132,VALID,0.651953,
2015-04-06, 07:57:04,VALID,916.767,VALID,0,VALID,98.4793,VALID,113.35,VALID,19.3518,VALID,130,VALID,0.266016,
2015-04-06, 07:58:04,VALID,916.742,VALID,0,VALID,98.4717,VALID,118.4,VALID,19.3518,VALID,130,VALID,1.19687,
2015-04-06, 07:59:04,VALID,916.739,VALID,0,VALID,98.4564,VALID,123.772,VALID,19.4103,VALID,120,VALID,1.19531,
2015-04-06, 08:00:04,VALID,916.681,VALID,0,VALID,98.4412,VALID,129.144,VALID,19.4883,VALID,116,VALID,1.58906,
2015-04-06, 08:01:04,VALID,916.658,VALID,0,VALID,98.4412,VALID,135.268,VALID,19.5078,VALID,102,VALID,1.50039,
2015-04-06, 08:02:04,VALID,916.645,VALID,0,VALID,98.4412,VALID,142.574,VALID,19.5078,VALID,133,VALID,1.15352,
2015-04-06, 08:03:04,VALID,916.616,VALID,0,VALID,98.4335,VALID,151.385,VALID,19.5663,VALID,119,VALID,0.855859,
2015-04-06, 08:04:04,VALID,916.622,VALID,0,VALID,98.4183,VALID,157.186,VALID,19.6053,VALID,134,VALID,1.41836,
2015-04-06, 08:05:04,VALID,916.575,VALID,0,VALID,98.4183,VALID,163.955,VALID,19.6443,VALID,147,VALID,1.11602,
2015-04-06, 08:06:04,VALID,916.623,VALID,0,VALID,98.4412,VALID,176.311,VALID,19.5858,VALID,168,VALID,1.87422,
2015-04-06, 08:07:04,VALID,916.619,VALID,0,VALID,98.4488,VALID,207.469,VALID,19.5468,VALID,141,VALID,1.41836,
2015-04-06, 08:08:04,VALID,916.616,VALID,0,VALID,98.4488,VALID,239.379,VALID,19.6038,VALID,146,VALID,0.835938,
2015-04-06, 08:09:04,VALID,916.579,VALID,0,VALID,98.4259,VALID,257.859,VALID,19.6443,VALID,155,VALID,1.21797,
2015-04-06, 08:10:04,VALID,916.597,VALID,0,VALID,98.4488,VALID,240.991,VALID,19.6248,VALID,158,VALID,1.5293,
2015-04-06, 08:11:04,VALID,916.625,VALID,0,VALID,98.4183,VALID,250.338,VALID,19.7223,VALID,146,VALID,1.17969,
2015-04-06, 08:12:04,VALID,916.625,VALID,0,VALID,98.4412,VALID,289.232,VALID,19.7223,VALID,135,VALID,1.52305,
2015-04-06, 08:13:04,VALID,916.648,VALID,0,VALID,98.4488,VALID,230.891,VALID,19.7223,VALID,141,VALID,1.45078,
2015-04-06, 08:14:04,VALID,916.674,VALID,0,VALID,98.4335,VALID,225.626,VALID,19.7808,VALID,145,VALID,1.31719,
2015-04-06, 08:15:04,VALID,916.722,VALID,0,VALID,98.4412,VALID,212.626,VALID,19.8003,VALID,147,VALID,1.48984,
2015-04-06, 08:16:04,VALID,916.773,VALID,0,VALID,98.4412,VALID,207.576,VALID,19.7418,VALID,164,VALID,1.56445,
2015-04-06, 08:17:04,VALID,916.826,VALID,0,VALID,98.4488,VALID,203.386,VALID,19.7808,VALID,186,VALID,0.879297,
2015-04-06, 08:18:04,VALID,916.858,VALID,0,VALID,98.4335,VALID,200.485,VALID,19.9173,VALID,150,VALID,0.938281,
2015-04-06, 08:19:04,VALID,916.87,VALID,0,VALID,98.4259,VALID,201.345,VALID,19.8978,VALID,147,VALID,1.33477,
2015-04-06, 08:20:04,VALID,916.891,VALID,0,VALID,98.4335,VALID,206.072,VALID,19.8963,VALID,159,VALID,1.06992,
2015-04-06, 08:21:04,VALID,916.873,VALID,0,VALID,98.4259,VALID,213.163,VALID,19.9758,VALID,146,VALID,1.15313,
2015-04-06, 08:22:04,VALID,916.917,VALID,0,VALID,98.4412,VALID,221.973,VALID,19.9938,VALID,146,VALID,1.43906,
2015-04-06, 08:23:04,VALID,916.93,VALID,0,VALID,98.4412,VALID,232.18,VALID,20.0133,VALID,165,VALID,1.06953,
2015-04-06, 08:24:04,VALID,916.937,VALID,0,VALID,98.4488,VALID,245.61,VALID,20.0343,VALID,136,VALID,1.51797,
2015-04-06, 08:25:04,VALID,916.951,VALID,0,VALID,98.4259,VALID,262.586,VALID,20.0913,VALID,152,VALID,1.42344,
2015-04-06, 08:26:04,VALID,916.96,VALID,0,VALID,98.4412,VALID,277.198,VALID,20.1108,VALID,163,VALID,1.2875,
2015-04-06, 08:27:04,VALID,916.959,VALID,0,VALID,98.4564,VALID,308.141,VALID,20.1108,VALID,143,VALID,1.54922,
2015-04-06, 08:28:04,VALID,916.946,VALID,0,VALID,98.4335,VALID,328.018,VALID,20.2278,VALID,147,VALID,0.05,
2015-04-06, 08:29:04,VALID,916.962,VALID,0,VALID,98.3954,VALID,395.061,VALID,20.3269,VALID,167,VALID,1.16562,
2015-04-06, 08:30:04,VALID,916.961,VALID,0,VALID,98.4793,VALID,520.015,VALID,20.2293,VALID,165,VALID,1.70547,
2015-04-06, 08:31:04,VALID,916.982,VALID,0,VALID,98.4335,VALID,507.23,VALID,20.3643,VALID,157,VALID,1.0332,
2015-04-06, 08:32:05,VALID,916.985,VALID,0,VALID,98.3573,VALID,534.52,VALID,20.6194,VALID,176,VALID,1.13789,
2015-04-06, 08:33:04,VALID,917.012,VALID,0,VALID,98.3421,VALID,578.463,VALID,20.795,VALID,141,VALID,0.884375,
2015-04-06, 08:34:04,VALID,917.034,VALID,0,VALID,98.3421,VALID,354.341,VALID,20.8925,VALID,133,VALID,1.37461,
2015-04-06, 08:35:04,VALID,917.059,VALID,0,VALID,98.3802,VALID,263.553,VALID,20.9511,VALID,144,VALID,1.15391,
2015-04-06, 08:36:04,VALID,917.076,VALID,0,VALID,98.3954,VALID,251.305,VALID,20.9511,VALID,156,VALID,0.791016,
2015-04-06, 08:37:04,VALID,917.083,VALID,0,VALID,98.4945,VALID,233.685,VALID,20.834,VALID,151,VALID,1.22734,
2015-04-06, 08:38:04,VALID,917.081,VALID,0,VALID,98.5403,VALID,231.643,VALID,20.7544,VALID,140,VALID,1.21016,
2015-04-06, 08:39:04,VALID,917.106,VALID,0,VALID,98.6013,VALID,232.18,VALID,20.6585,VALID,144,VALID,0.825781,
2015-04-06, 08:40:04,VALID,917.116,VALID,0,VALID,98.6013,VALID,235.511,VALID,20.6569,VALID,135,VALID,0,
2015-04-06, 08:41:04,VALID,917.136,VALID,0,VALID,98.6241,VALID,240.883,VALID,20.6569,VALID,117,VALID,0,
2015-04-06, 08:42:04,VALID,917.114,VALID,0,VALID,98.708,VALID,228.527,VALID,20.5789,VALID,126,VALID,0,
2015-04-06, 08:43:04,VALID,917.146,VALID,0,VALID,98.6241,VALID,235.618,VALID,20.7349,VALID,96,VALID,0,
2015-04-06, 08:44:04,VALID,917.133,VALID,0,VALID,98.6394,VALID,297.29,VALID,20.7544,VALID,137,VALID,0,
2015-04-06, 08:45:04,VALID,917.139,VALID,0,VALID,98.6394,VALID,288.372,VALID,20.8129,VALID,137,VALID,0,
2015-04-06, 08:46:04,VALID,917.139,VALID,0,VALID,98.6165,VALID,334.572,VALID,20.9495,VALID,137,VALID,0,
2015-04-06, 08:47:04,VALID,917.167,VALID,0,VALID,98.5555,VALID,366.052,VALID,21.1039,VALID,137,VALID,0,
2015-04-06, 08:48:04,VALID,917.188,VALID,0,VALID,98.4869,VALID,357.134,VALID,21.3201,VALID,124,VALID,0,
2015-04-06, 08:49:04,VALID,917.152,VALID,0,VALID,98.4564,VALID,304.596,VALID,21.4957,VALID,124,VALID,0,
2015-04-06, 08:50:04,VALID,917.157,VALID,0,VALID,98.4107,VALID,362.399,VALID,21.6908,VALID,23,VALID,0,
2015-04-06, 08:51:04,VALID,917.175,VALID,0,VALID,98.4793,VALID,405.805,VALID,21.7087,VALID,28,VALID,0,
2015-04-06, 08:52:04,VALID,917.2,VALID,0,VALID,98.4717,VALID,480.262,VALID,21.7867,VALID,28,VALID,0,
2015-04-06, 08:53:04,VALID,917.201,VALID,0,VALID,98.4793,VALID,384.639,VALID,21.8436,VALID,28,VALID,0,
2015-04-06, 08:54:04,VALID,917.218,VALID,0,VALID,98.4031,VALID,356.382,VALID,21.8062,VALID,132,VALID,0,
2015-04-06, 08:55:04,VALID,917.235,VALID,0,VALID,97.8618,VALID,550.314,VALID,21.9428,VALID,130,VALID,0,
2015-04-06, 08:56:04,VALID,917.25,VALID,0,VALID,96.9165,VALID,604.142,VALID,22.1362,VALID,55,VALID,0,
2015-04-06, 08:57:04,VALID,917.24,VALID,0,VALID,94.8734,VALID,599.199,VALID,22.3347,VALID,95,VALID,0,
2015-04-06, 08:58:04,VALID,917.225,VALID,0,VALID,91.9689,VALID,588.992,VALID,22.5494,VALID,177,VALID,0,
2015-04-06, 08:59:04,VALID,917.23,VALID,0,VALID,88.424,VALID,595.976,VALID,22.7055,VALID,140,VALID,0,
2015-04-06, 09:00:04,VALID,917.216,VALID,0,VALID,87.1051,VALID,605.646,VALID,22.8421,VALID,161,VALID,0,
2015-04-06, 09:01:04,VALID,917.222,VALID,0,VALID,87.654,VALID,427.293,VALID,22.938,VALID,175,VALID,0,
